Weather History for Gallup, NM

Change the Weather History Date:

Saturday, March 15, 2014

  Actual Average Record
Temperature  
Mean Temperature 38 °F -  
Max Temperature 53 °F 55 °F 80 °F (2013)
Min Temperature 25 °F 20 °F 1 °F (2005)
Degree Days  
Heating Degree Days 26    
Moisture  
Dew Point 17 °F    
Average Humidity 60    
Maximum Humidity 96    
Minimum Humidity 14    
Precipitation  
Precipitation 0.00 in - - ()
Sea Level Pressure  
Sea Level Pressure 30.09 in    
Wind  
Wind Speed 8 mph (NW)    
Max Wind Speed 31 mph    
Max Gust Speed 50 mph    
Visibility 9 miles    
Events      
Averages and records for this station are not official NWS values.
T = Trace of Precipitation, MM = Missing Value Source: NWS Daily Summary

Daily Weather History Graph

Daily Weather History Graph

Search for Another Location

Airport:

Trip Planner

Search our weather history database for the weather conditions in past years. The results will help you decide how hot, cold, wet, or windy it might be!

Date:

Astronomy

Mar. 15, 2014 Rise Set
Actual Time 7:25 AM MDT 7:22 PM MDT
Civil Twilight 7:00 AM MDT 7:48 PM MDT
Nautical Twilight 6:30 AM MDT 8:17 PM MDT
Astronomical Twilight 6:01 AM MDT 8:47 PM MDT
Moon 6:45 PM MDT (3/15) 6:38 AM MDT (3/15)
Length of Visible Light 12h 47m
Length of Day
11h 57m
Waxing Gibbous, 99% of the Moon is Illuminated
Mar 15
Waxing Gibbous
Mar 16
Full
Mar 23
Last Quarter
Mar 30
New
Apr 7
First Quarter

Hourly Weather History & Observations

Time (MDT) Temp. Windchill Dew Point Humidity Pressure Visibility Wind Dir Wind Speed Gust Speed Precip Events Conditions
12:53 AM 34.0 °F - 32.0 °F 92% 30.01 in 10.0 mi Calm Calm - N/A   Clear
1:53 AM 30.9 °F - 28.9 °F 92% 30.02 in 10.0 mi Calm Calm - N/A   Clear
2:07 AM 30.0 °F - 28.9 °F 96% 30.12 in 2.5 mi Calm Calm - N/A   Clear
2:14 AM 30.0 °F - 28.9 °F 96% 30.12 in 10.0 mi Calm Calm - N/A   Clear
2:53 AM 28.9 °F - 28.0 °F 96% 30.04 in 6.0 mi Calm Calm - N/A   Clear
3:53 AM 30.9 °F - 28.9 °F 92% 30.02 in 10.0 mi Calm Calm - N/A   Clear
4:53 AM 28.9 °F 25.2 °F 28.0 °F 96% 30.06 in 10.0 mi WSW 3.5 mph - N/A   Clear
5:53 AM 26.1 °F 20.5 °F 25.0 °F 96% 30.06 in 10.0 mi West 4.6 mph - N/A   Clear
6:15 AM 26.1 °F 19.4 °F 25.0 °F 96% 30.08 in 2.0 mi West 5.8 mph - N/A   Mostly Cloudy
6:22 AM 26.1 °F 19.4 °F 25.0 °F 96% 30.09 in 1.0 mi West 5.8 mph - N/A   Mostly Cloudy
6:27 AM 26.1 °F 20.5 °F 25.0 °F 96% 30.09 in 4.0 mi West 4.6 mph - N/A   Mostly Cloudy
6:53 AM 25.0 °F 18.1 °F 24.1 °F 96% 30.09 in 10.0 mi WSW 5.8 mph - N/A   Overcast
7:53 AM 28.0 °F 22.8 °F 27.0 °F 96% 30.12 in 10.0 mi East 4.6 mph - N/A   Overcast
8:53 AM 34.0 °F - 30.9 °F 89% 30.10 in 10.0 mi Calm Calm - N/A   Overcast
9:53 AM 43.0 °F 35.7 °F 28.0 °F 56% 30.05 in 10.0 mi NNW 15.0 mph 20.7 mph N/A   Clear
10:53 AM 46.0 °F 37.6 °F 21.0 °F 37% 30.05 in 10.0 mi NW 24.2 mph 33.4 mph N/A   Clear
11:53 AM 48.9 °F - 14.0 °F 25% 30.02 in 10.0 mi NW 23.0 mph 32.2 mph N/A   Clear
12:53 PM 51.1 °F - 7.0 °F 17% 29.98 in 10.0 mi NW 23.0 mph 33.4 mph N/A   Clear
1:53 PM 52.0 °F - 3.9 °F 14% 29.98 in 10.0 mi NNW 31.1 mph 49.5 mph N/A   Mostly Cloudy
4:53 PM 48.0 °F - 3.9 °F 16% 30.04 in 10.0 mi NNW 28.8 mph 41.4 mph N/A   Mostly Cloudy
5:53 PM 48.9 °F - 1.9 °F 15% 30.06 in 10.0 mi North 21.9 mph 47.2 mph N/A   Partly Cloudy
6:53 PM 45.0 °F 36.4 °F -0.9 °F 15% 30.14 in 10.0 mi North 23.0 mph 42.6 mph N/A   Clear
7:53 PM 43.0 °F 33.8 °F -0.9 °F 16% 30.19 in 10.0 mi North 23.0 mph 31.1 mph N/A   Clear
8:53 PM 42.1 °F 32.8 °F 1.0 °F 18% 30.22 in 10.0 mi North 21.9 mph 32.2 mph N/A   Clear
9:53 PM 39.9 °F 29.7 °F -0.9 °F 18% 30.25 in 10.0 mi NNE 23.0 mph 29.9 mph N/A   Clear
10:53 PM 39.9 °F 29.2 °F -0.0 °F 19% 30.21 in 10.0 mi North 25.3 mph 34.5 mph N/A   Clear
11:53 PM 37.9 °F 28.9 °F 3.0 °F 23% 30.21 in 10.0 mi North 16.1 mph 25.3 mph N/A   Clear